User: anonymous   Login
Location: North Runcton
(52.7000°N, 0.4333°E)
Time: 10:59:41
(UTC+00:00)
Language:

Cosmos 2221 - Orbit

View from above orbital plane
View from above orbital plane
View from above satellite
View from above satellite

Ground track
Ground track

The orbit data is extracted from the following two-line orbital elements,

1 22236U 92080A   25199.19908323  .00001417  00000-0  12727-3 0  9990
2 22236  82.5060 143.4276 0012827 259.5112 100.4664 14.94972564766797
Epoch (UTC): 18 July 2025 04:46:40
Eccentricity: 0.0012827
inclination: 82.5060°
perigee height: 573 km
apogee height: 591 km
right ascension of ascending node: 143.4276°
argument of perigee: 259.5112°
revolutions per day: 14.94972564
mean anomaly at epoch: 100.4664°
orbit number at epoch: 76679

The dashed part of the orbit path shows where the satellite is in the earth's shadow,  

DLR